Met observations

Date (UTC) Wind direction m/s kts. Vis. * Weather * Cloud * Temperature (°C) Dew point (°C) Air pressure (Hp)
30-07 15:31 9 18 VIS 10 km FEW 700ft 10.5 7.7 1008.5
30-07 15:21 10 19 VIS 10 km FEW 700ft 10.2 7.4 1008.5
30-07 15:11 9 18 VIS 10 km FEW 700ft 10.3 7.9 1008.3
30-07 15:01 9 18 VIS 10 km FEW 700ft 10.7 8.4 1008.3
30-07 14:51 10 19 VIS 10 km FEW 700ft 10.9 8.4 1008.3
30-07 14:41 10 20 VIS 10 km FEW 700ft 10.6 8.3 1008.1
30-07 14:31 10 20 VIS 10 km FEW 700ft 10.6 8.3 1008.0
30-07 14:21 11 21 VIS 10 km FEW 700ft 10.7 8.5 1008.3
30-07 14:11 10 19 VIS 10 km FEW 700ft 10.8 8.2 1008.2
30-07 14:01 9 18 VIS 10 km FEW 700ft 11.1 8.2 1008.3
30-07 13:51 9 18 VIS 10 km FEW 700ft 11.1 8.5 1008.0
30-07 13:41 9 18 VIS 10 km FEW 700ft 11.1 8.5 1008.0
30-07 13:31 10 19 VIS 10 km FEW 700ft 11.2 8.6 1008.0
30-07 13:21 9 17 VIS 10 km FEW 700ft 11.4 8.7 1008.0
30-07 13:11 9 17 VIS 10 km FEW 700ft 11.4 8.8 1008.0
30-07 13:01 8 16 VIS 10 km FEW 700ft 11.5 8.5 1008.0
30-07 12:51 9 18 VIS 10 km FEW 700ft 11.9 8.8 1007.9
30-07 12:41 9 18 VIS 10 km FEW 700ft 11.6 8.2 1007.8
30-07 12:31 10 19 VIS 10 km FEW 700ft 11.2 8.4 1007.9
30-07 12:21 9 18 VIS 10 km FEW 700ft 11.1 8.3 1008.0
30-07 12:11 9 18 VIS 10 km FEW 700ft 11.1 8.6 1008.0
30-07 12:01 10 19 VIS 10 km FEW 700ft 11.1 8.5 1007.9
30-07 11:51 9 18 VIS 10 km FEW 700ft 11.2 8.7 1008.0
30-07 11:41 9 17 VIS 10 km FEW 700ft 10.8 8.2 1008.1
30-07 11:31 10 19 VIS 10 km FEW 700ft 10.9 8.2 1007.9
30-07 11:21 9 17 VIS 10 km FEW 700ft 11.2 8.3 1007.8
30-07 11:11 9 18 VIS 10 km FEW 700ft 11.0 8.2 1007.8
30-07 11:01 10 19 VIS 10 km FEW 700ft 11.1 8.1 1007.8
30-07 10:51 10 20 VIS 10 km FEW 700ft 10.9 8.5 1007.8
30-07 10:41 10 19 VIS 10 km FEW 700ft 10.8 8.6 1007.8
30-07 10:31 9 18 VIS 10 km FEW 700ft 10.9 8.8 1007.8
30-07 10:21 9 17 VIS 10 km FEW 700ft 10.5 8.6 1007.8
30-07 10:11 10 20 VIS 10 km FEW 700ft 10.1 8.6 1007.9
30-07 10:01 11 21 VIS 10 km FEW 700ft 10.2 9.0 1007.8
30-07 09:51 10 20 VIS 10 km FEW 700ft 10.4 8.5 1007.8
30-07 09:41 10 20 VIS 10 km FEW 700ft 9.8 8.1 1007.7
30-07 09:31 10 20 VIS 10 km FEW 700ft 10.0 8.7 1007.7
30-07 09:21 10 20 VIS 10 km FEW 700ft 10.0 8.8 1007.6
30-07 09:11 10 20 VIS 10 km FEW 700ft 10.3 8.7 1007.3
30-07 09:01 10 19 VIS 10 km FEW 700ft 10.4 8.6 1007.4
30-07 08:51 10 19 VIS 10 km FEW 700ft 10.6 8.8 1007.3
30-07 08:41 10 19 VIS 10 km FEW 700ft 11.0 8.5 1007.3
30-07 08:31 8 15 VIS 10 km FEW 700ft 10.9 8.9 1007.4
30-07 08:21 9 17 VIS 10 km FEW 700ft 10.4 8.8 1007.4
30-07 08:11 9 17 VIS 10 km FEW 700ft 9.7 8.5 1007.4
30-07 08:01 9 18 VIS 10 km FEW 700ft 9.7 8.4 1007.4
30-07 07:51 9 18 VIS 10 km FEW 700ft 10.1 8.8 1007.3
30-07 07:41 9 18 VIS 10 km FEW 700ft 9.9 8.5 1007.2
30-07 07:31 9 17 VIS 10 km FEW 700ft 10.4 8.5 1007.2
30-07 07:21 9 17 VIS 9 km SCT 700ft 10.2 8.7 1007.4
30-07 07:11 8 16 VIS 9 km SCT 700ft 10.0 8.5 1007.4
30-07 07:01 8 16 VIS 9 km SCT 700ft 10.0 8.7 1007.4
30-07 06:51 8 16 VIS 9 km SCT 700ft 9.7 8.7 1007.3
30-07 06:41 9 17 VIS 9 km SCT 700ft 9.3 8.5 1007.3
30-07 06:31 9 17 VIS 9 km SCT 700ft 9.3 8.5 1007.2
30-07 06:21 8 16 VIS 9 km SCT 700ft 9.5 8.5 1007.1
30-07 06:11 9 17 VIS 9 km SCT 700ft 9.3 8.5 1006.9
30-07 06:01 9 17 VIS 9 km SCT 700ft 9.3 8.6 1007.0
30-07 05:51 9 17 VIS 9 km SCT 700ft 9.2 8.6 1006.9
30-07 05:41 8 16 VIS 9 km SCT 700ft 9.0 8.5 1006.9
30-07 05:31 8 16 VIS 9 km SCT 700ft 9.0 8.3 1006.9
30-07 05:21 8 16 VIS 9 km SCT 700ft 9.1 8.2 1006.9
30-07 05:11 7 14 VIS 9 km SCT 700ft 9.0 8.2 1006.9
30-07 05:01 8 16 VIS 9 km SCT 700ft 9.0 8.0 1007.0
30-07 04:51 8 15 VIS 9 km SCT 700ft 9.0 8.3 1006.9
30-07 04:41 7 13 VIS 9 km SCT 700ft 8.9 8.5 1006.8
30-07 04:31 7 13 VIS 9 km SCT 700ft 8.8 8.6 1006.8
30-07 04:21 6 12 VIS 9 km SCT 700ft 8.7 8.7 1006.9
30-07 04:11 8 15 VIS 9 km SCT 700ft 8.7 8.7 1006.9
30-07 04:01 6 12 VIS 9 km SCT 700ft 8.8 8.8 1006.9
30-07 03:51 6 12 VIS 9 km SCT 700ft 8.6 8.6 1006.9
30-07 03:41 5 10 VIS 9 km SCT 700ft 9.1 9.1 1006.8
30-07 03:31 6 12 VIS 9 km SCT 700ft 9.5 9.5 1006.9
30-07 03:21 6 11 VIS 9 km SCT 700ft 9.4 9.4 1006.9
30-07 03:11 5 10 VIS 9 km SCT 700ft 9.0 9.0 1006.9
30-07 03:01 5 10 VIS 9 km SCT 700ft 9.0 9.0 1006.9
30-07 02:51 4 08 VIS 9 km SCT 700ft 9.4 9.4 1007.0
30-07 02:41 5 09 VIS 9 km SCT 700ft 9.7 9.7 1006.9
30-07 02:31 4 08 VIS 9 km SCT 700ft 9.6 9.6 1006.9
30-07 02:21 3 05 VIS 9 km SCT 700ft 10.7 10.7 1006.8
30-07 02:11 2 03 VIS 9 km SCT 700ft 10.7 10.7 1006.8
30-07 02:01 2 03 VIS 9 km SCT 700ft 10.8 10.8 1006.7
30-07 01:51 1 01 VIS 9 km SCT 700ft 10.9 10.9 1006.7
30-07 01:41 1 01 VIS 9 km SCT 700ft 10.9 10.9 1006.7
30-07 01:31 1 01 VIS 9 km SCT 700ft 10.8 10.8 1006.6
30-07 01:21 1 01 VIS 9 km SCT 700ft 10.9 10.9 1006.6
30-07 01:11 1 01 VIS 9 km SCT 700ft 10.9 10.9 1006.5
30-07 01:01 1 02 VIS 9 km SCT 700ft 10.8 10.8 1006.5
30-07 00:51 2 03 VIS 9 km SCT 700ft 10.6 10.6 1006.5
30-07 00:41 3 05 VIS 9 km SCT 700ft 10.6 10.6 1006.5
30-07 00:31 2 04 VIS 9 km SCT 700ft 10.6 10.6 1006.5
30-07 00:21 4 07 VIS 9 km SCT 700ft 10.8 10.8 1006.5
30-07 00:11 3 05 VIS 9 km SCT 700ft 10.9 10.9 1006.4
30-07 00:01 1 02 VIS 9 km SCT 700ft 10.9 10.9 1006.3
29-07 23:51 1 02 VIS 9 km SCT 700ft 10.8 10.8 1006.2
29-07 23:41 2 04 VIS 9 km SCT 700ft 11.0 11.0 1006.2
29-07 23:31 1 02 VIS 9 km SCT 700ft 11.0 11.0 1006.2
29-07 23:21 2 03 VIS 9 km SCT 700ft 11.0 11.0 1006.2
29-07 23:11 2 03 VIS 9 km SCT 700ft 11.5 11.5 1006.2
29-07 23:01 2 04 VIS 9 km SCT 700ft 11.5 11.5 1006.1
29-07 22:51 3 06 VIS 9 km SCT 700ft 11.3 11.3 1006.0
29-07 22:41 2 04 VIS 9 km SCT 700ft 11.1 11.1 1006.0
29-07 22:31 3 05 VIS 9 km SCT 700ft 11.1 11.1 1005.9
29-07 22:21 2 04 VIS 9 km SCT 700ft 11.1 11.1 1005.8
29-07 22:11 3 06 VIS 9 km SCT 700ft 11.2 11.2 1005.8
29-07 22:01 3 06 VIS 9 km SCT 700ft 11.2 11.2 1005.7
29-07 21:51 3 06 VIS 9 km SCT 700ft 11.3 11.3 1005.6
29-07 21:41 3 06 VIS 9 km SCT 700ft 11.1 11.1 1005.6
29-07 21:31 4 07 VIS 9 km SCT 700ft 11.2 11.2 1005.5
29-07 21:21 3 06 VIS 9 km SCT 700ft 11.3 11.3 1005.6
29-07 21:11 3 05 VIS 9 km SCT 700ft 11.3 11.3 1005.6
29-07 21:01 3 06 VIS 9 km SCT 700ft 11.1 11.1 1005.4
29-07 20:51 2 03 VIS 9 km SCT 700ft 10.9 10.9 1005.4
29-07 20:41 2 04 VIS 9 km SCT 700ft 10.9 10.9 1005.4
29-07 20:31 3 06 VIS 9 km SCT 700ft 10.9 10.9 1005.4
29-07 20:21 4 07 VIS 9 km SCT 700ft 11.0 11.0 1005.3
29-07 20:11 3 06 VIS 9 km SCT 700ft 11.3 11.3 1005.3
29-07 20:01 4 07 VIS 9 km SCT 700ft 11.2 11.2 1005.2
29-07 19:51 4 08 VIS 9 km SCT 700ft 11.4 11.4 1005.1
29-07 19:41 4 07 VIS 9 km SCT 700ft 11.2 11.2 1005.0
29-07 19:31 4 07 VIS 9 km SCT 700ft 11.3 11.2 1005.0
29-07 19:21 4 08 VIS 9 km SCT 700ft 11.3 11.3 1004.9
29-07 19:11 4 07 VIS 9 km SCT 700ft 11.5 11.5 1004.9
29-07 19:01 4 07 VIS 9 km SCT 700ft 12.1 12.1 1004.8
29-07 18:51 4 07 VIS 9 km SCT 700ft 12.1 12.1 1004.7
29-07 18:41 4 08 VIS 9 km SCT 700ft 12.2 12.1 1004.7
29-07 18:31 4 08 VIS 9 km SCT 700ft 12.0 12.0 1004.7
29-07 18:21 4 08 VIS 9 km SCT 700ft 12.5 12.5 1004.6
29-07 18:11 5 09 VIS 9 km SCT 700ft 12.2 12.2 1004.5
29-07 18:01 4 08 VIS 9 km SCT 700ft 12.6 12.5 1004.5
29-07 17:51 4 08 VIS 9 km FEW 700ft BKN 1200ft 12.4 12.3 1004.5
29-07 17:41 5 09 VIS 9 km FEW 700ft BKN 1200ft 12.6 12.2 1004.4
29-07 17:31 5 10 VIS 9 km FEW 700ft BKN 1200ft 13.1 12.8 1004.3
29-07 17:21 5 09 VIS 9 km FEW 700ft BKN 1200ft 12.6 12.3 1004.4
29-07 17:11 5 09 VIS 9 km FEW 700ft BKN 1200ft 13.4 12.8 1004.3
29-07 17:01 5 09 VIS 9 km FEW 700ft BKN 1200ft 13.4 12.8 1004.3
29-07 16:51 5 09 VIS 9 km FEW 700ft BKN 1200ft 12.6 12.3 1004.2
29-07 16:41 5 10 VIS 9 km FEW 700ft BKN 1200ft 12.3 11.8 1004.2
29-07 16:31 5 09 VIS 9 km FEW 700ft BKN 1200ft 12.7 12.2 1004.1
29-07 16:21 4 08 VIS 9 km FEW 700ft BKN 1200ft 13.1 12.3 1004.1
29-07 16:11 3 06 VIS 9 km FEW 700ft BKN 1200ft 13.2 12.5 1004.1
29-07 16:01 4 07 VIS 9 km FEW 700ft BKN 1200ft 13.1 12.3 1004.0
29-07 15:51 5 09 VIS 9 km FEW 700ft BKN 1200ft 13.5 12.7 1003.9
29-07 15:41 5 09 VIS 10 km FEW 600ft BKN 1500ft 13.1 12.2 1003.7

Met data is updated every half hour and is for information only.
* Visibility, weather and cloud values are updated during the airport’s service hours only.
Flight planning documentation is available on opmet.dmi.dk.
For meteorological abbreviations, click here